TimeEST,TemperatureF,Dew PointF,Humidity,Sea Level PressureIn,VisibilityMPH,Wind Direction,Wind SpeedMPH,Gust SpeedMPH,PrecipitationIn,Events,Conditions,WindDirDegrees,DateUTC
12:15 AM,33.4,32.7,97,29.45,1.0,West,6.9,-,N/A,Rain,Light Rain,260,2013-02-27 05:15:00
12:35 AM,33.8,33.1,97,29.45,0.8,West,4.6,-,0.01,Rain,Light Rain,270,2013-02-27 05:35:00
12:55 AM,34.2,33.6,98,29.46,1.5,West,8.1,-,0.01,Rain,Light Rain,270,2013-02-27 05:55:00
1:15 AM,34.2,33.8,99,29.47,2.0,West,4.6,-,0.01,Rain,Light Rain,280,2013-02-27 06:15:00
1:35 AM,34.0,33.4,98,29.48,1.8,West,6.9,-,0.01,Rain,Light Rain,280,2013-02-27 06:35:00
1:55 AM,34.0,33.4,98,29.48,1.8,West,5.8,-,0.01,,Overcast,270,2013-02-27 06:55:00
2:15 AM,34.2,33.6,98,29.49,1.0,WSW,6.9,-,N/A,Rain,Light Rain,250,2013-02-27 07:15:00
2:35 AM,34.2,33.6,98,29.49,1.0,West,5.8,-,N/A,Rain,Light Rain,260,2013-02-27 07:35:00
2:55 AM,33.8,33.3,98,29.49,0.8,West,6.9,-,N/A,Rain,Light Rain,260,2013-02-27 07:55:00
3:15 AM,34.3,33.8,98,29.49,2.0,WSW,9.2,-,N/A,Rain,Light Rain,250,2013-02-27 08:15:00
3:35 AM,34.7,34.2,98,29.49,1.5,WSW,8.1,-,N/A,Rain,Light Rain,250,2013-02-27 08:35:00
3:55 AM,34.9,34.3,98,29.48,1.5,WSW,9.2,-,N/A,,Overcast,250,2013-02-27 08:55:00
4:15 AM,34.9,34.3,98,29.49,1.8,WSW,8.1,-,N/A,Snow,Light Snow,250,2013-02-27 09:15:00
4:35 AM,34.7,34.2,98,29.49,2.5,WSW,9.2,-,N/A,,Overcast,250,2013-02-27 09:35:00
4:55 AM,34.7,34.2,98,29.50,2.5,WSW,11.5,-,N/A,,Overcast,240,2013-02-27 09:55:00
5:35 AM,34.5,34.0,98,29.51,3.0,WSW,16.1,20.7,N/A,Rain,Light Rain,250,2013-02-27 10:35:00
5:55 AM,34.2,33.6,98,29.52,4.0,West,18.4,26.5,N/A,,Overcast,260,2013-02-27 10:55:00
6:15 AM,33.8,33.3,98,29.53,2.5,WSW,20.7,-,N/A,Rain,Light Rain,250,2013-02-27 11:15:00
6:35 AM,33.3,32.7,98,29.54,3.0,WSW,18.4,24.2,N/A,Rain,Light Rain,250,2013-02-27 11:35:00
6:55 AM,32.9,32.4,98,29.54,2.5,WSW,15.0,23.0,N/A,Rain,Light Rain,250,2013-02-27 11:55:00
7:15 AM,32.9,32.2,97,29.54,5.0,WSW,13.8,-,N/A,,Overcast,250,2013-02-27 12:15:00
7:35 AM,32.9,32.0,96,29.55,3.0,WSW,15.0,-,N/A,,Overcast,250,2013-02-27 12:35:00
7:55 AM,32.9,32.0,96,29.56,1.2,WSW,13.8,-,N/A,Snow,Light Snow,250,2013-02-27 12:55:00
8:15 AM,32.7,32.0,97,29.57,1.0,WSW,16.1,20.7,N/A,Snow,Light Snow,240,2013-02-27 13:15:00
8:35 AM,32.9,32.0,96,29.58,5.0,WSW,15.0,20.7,N/A,,Overcast,240,2013-02-27 13:35:00
8:55 AM,32.7,31.8,96,29.58,2.0,WSW,16.1,20.7,N/A,,Overcast,240,2013-02-27 13:55:00
9:15 AM,32.5,31.8,97,29.58,3.0,WSW,16.1,21.9,N/A,,Overcast,240,2013-02-27 14:15:00
9:35 AM,32.4,32.0,99,29.59,2.0,WSW,16.1,21.9,N/A,,Overcast,240,2013-02-27 14:35:00
10:15 AM,32.4,31.8,98,29.59,5.0,WSW,18.4,25.3,N/A,,Overcast,240,2013-02-27 15:15:00
10:35 AM,32.5,31.8,97,29.59,3.0,WSW,18.4,23.0,N/A,,Overcast,240,2013-02-27 15:35:00
10:55 AM,32.5,31.8,97,29.60,3.0,WSW,15.0,23.0,N/A,Snow,Light Snow,240,2013-02-27 15:55:00
11:15 AM,32.7,31.8,96,29.60,4.0,WSW,15.0,-,N/A,,Overcast,240,2013-02-27 16:15:00
11:35 AM,32.7,31.6,96,29.59,3.0,WSW,18.4,21.9,N/A,Snow,Light Snow,240,2013-02-27 16:35:00
11:55 AM,33.1,31.8,95,29.59,7.0,WSW,13.8,-,N/A,,Overcast,240,2013-02-27 16:55:00
12:15 PM,33.1,31.3,93,29.59,5.0,WSW,16.1,24.2,N/A,,Overcast,240,2013-02-27 17:15:00
12:35 PM,33.8,30.6,88,29.59,10.0,WSW,17.3,-,N/A,,Overcast,240,2013-02-27 17:35:00
12:55 PM,33.6,30.9,90,29.59,10.0,WSW,16.1,23.0,N/A,,Overcast,240,2013-02-27 17:55:00
1:15 PM,33.8,30.6,88,29.59,7.0,SW,18.4,25.3,N/A,,Overcast,230,2013-02-27 18:15:00
1:35 PM,33.4,30.2,88,29.59,5.0,WSW,19.6,25.3,N/A,,Overcast,240,2013-02-27 18:35:00
1:55 PM,33.4,30.2,88,29.59,10.0,WSW,15.0,20.7,N/A,,Overcast,250,2013-02-27 18:55:00
2:15 PM,33.3,30.0,88,29.59,10.0,WSW,16.1,23.0,N/A,,Overcast,240,2013-02-27 19:15:00
2:35 PM,33.1,30.0,89,29.59,10.0,WSW,13.8,-,N/A,,Overcast,240,2013-02-27 19:35:00
2:55 PM,32.9,30.2,90,29.60,7.0,WSW,17.3,21.9,N/A,,Overcast,240,2013-02-27 19:55:00
3:15 PM,32.9,30.2,90,29.60,3.0,WSW,17.3,20.7,N/A,,Overcast,250,2013-02-27 20:15:00
3:35 PM,32.9,30.2,90,29.61,4.0,WSW,15.0,-,N/A,Snow,Light Snow,240,2013-02-27 20:35:00
3:55 PM,32.9,30.0,89,29.61,7.0,WSW,15.0,-,N/A,,Overcast,240,2013-02-27 20:55:00
4:15 PM,32.7,30.0,90,29.61,5.0,WSW,13.8,-,N/A,Snow,Light Snow,240,2013-02-27 21:15:00
4:35 PM,32.5,30.2,91,29.61,3.0,WSW,15.0,20.7,N/A,Snow,Light Snow,250,2013-02-27 21:35:00
4:55 PM,32.4,30.4,92,29.62,3.0,WSW,12.7,18.4,N/A,Snow,Light Snow,250,2013-02-27 21:55:00
5:15 PM,32.0,30.6,94,29.62,0.5,WSW,13.8,20.7,N/A,Snow,Light Snow,240,2013-02-27 22:15:00
5:35 PM,32.0,30.4,94,29.62,2.0,WSW,15.0,21.9,N/A,Snow,Light Snow,250,2013-02-27 22:35:00
5:55 PM,32.0,30.2,93,29.63,2.5,WSW,15.0,-,N/A,Snow,Light Snow,250,2013-02-27 22:55:00
6:15 PM,32.0,30.2,93,29.63,2.5,WSW,15.0,-,N/A,Snow,Light Snow,250,2013-02-27 23:15:00
6:35 PM,32.0,29.8,92,29.64,3.0,WSW,15.0,20.7,N/A,Snow,Light Snow,250,2013-02-27 23:35:00
6:55 PM,32.0,30.0,92,29.64,4.0,WSW,16.1,-,N/A,Snow,Light Snow,250,2013-02-27 23:55:00
7:15 PM,32.0,29.8,92,29.65,5.0,WSW,15.0,-,N/A,Snow,Light Snow,250,2013-02-28 00:15:00
7:35 PM,32.0,29.8,92,29.65,7.0,WSW,16.1,20.7,N/A,Snow,Light Snow,250,2013-02-28 00:35:00
7:55 PM,31.8,29.1,90,29.65,4.0,West,18.4,-,N/A,Snow,Light Snow,260,2013-02-28 00:55:00
8:15 PM,31.5,28.4,88,29.65,3.0,WSW,16.1,21.9,N/A,Snow,Light Snow,250,2013-02-28 01:15:00
8:35 PM,31.1,28.8,91,29.65,2.5,WSW,17.3,21.9,N/A,Snow,Light Snow,250,2013-02-28 01:35:00
9:15 PM,31.1,29.3,93,29.65,2.5,WSW,15.0,-,N/A,Snow,Light Snow,250,2013-02-28 02:15:00
9:35 PM,31.1,29.3,93,29.65,2.0,WSW,16.1,-,N/A,Snow,Light Snow,250,2013-02-28 02:35:00
9:55 PM,30.9,29.3,94,29.65,2.0,WSW,15.0,-,N/A,Snow,Light Snow,250,2013-02-28 02:55:00
10:15 PM,30.9,29.3,94,29.65,3.0,WSW,15.0,-,N/A,Snow,Light Snow,250,2013-02-28 03:15:00
10:35 PM,30.9,29.3,94,29.65,2.5,WSW,12.7,-,N/A,Snow,Light Snow,250,2013-02-28 03:35:00
10:55 PM,30.9,29.3,94,29.65,3.0,WSW,15.0,-,N/A,Snow,Light Snow,250,2013-02-28 03:55:00
11:15 PM,30.9,29.3,94,29.64,2.5,WSW,15.0,-,N/A,Snow,Light Snow,250,2013-02-28 04:15:00
11:35 PM,31.1,29.3,93,29.64,4.0,WSW,13.8,-,N/A,Snow,Light Snow,250,2013-02-28 04:35:00
11:55 PM,31.1,29.3,93,29.64,5.0,WSW,15.0,-,N/A,Snow,Light Snow,250,2013-02-28 04:55:00